TimeCST,TemperatureF,Dew PointF,Humidity,Sea Level PressureIn,VisibilityMPH,Wind Direction,Wind SpeedMPH,Gust SpeedMPH,PrecipitationIn,Events,Conditions,WindDirDegrees,DateUTC
12:53 AM,28.0,12.0,51,29.66,10.0,ESE,8.1,-,N/A,,Clear,120,2011-11-18 06:53:00
1:53 AM,26.1,12.0,55,29.65,10.0,ESE,5.8,-,N/A,,Partly Cloudy,110,2011-11-18 07:53:00
2:53 AM,26.1,12.0,55,29.65,10.0,Calm,Calm,-,N/A,,Clear,0,2011-11-18 08:53:00
3:53 AM,23.0,12.0,63,29.65,10.0,NNE,3.5,-,N/A,,Clear,30,2011-11-18 09:53:00
4:53 AM,24.1,14.0,65,29.65,10.0,Calm,Calm,-,N/A,,Clear,0,2011-11-18 10:53:00
5:53 AM,24.1,15.1,69,29.67,10.0,Calm,Calm,-,N/A,,Scattered Clouds,0,2011-11-18 11:53:00
6:53 AM,23.0,15.1,72,29.66,10.0,North,3.5,-,N/A,,Scattered Clouds,10,2011-11-18 12:53:00
7:53 AM,25.0,16.0,69,29.64,10.0,East,3.5,-,N/A,,Overcast,100,2011-11-18 13:53:00
8:53 AM,27.0,17.1,66,29.67,10.0,Calm,Calm,-,N/A,,Overcast,0,2011-11-18 14:53:00
9:53 AM,28.9,15.1,56,29.66,10.0,SE,3.5,-,N/A,,Overcast,130,2011-11-18 15:53:00
10:53 AM,28.9,18.0,64,29.69,2.5,WSW,3.5,-,0.00,Snow,Light Snow,240,2011-11-18 16:53:00
10:58 AM,28.4,17.6,64,29.65,1.8,SW,3.5,-,0.00,Snow,Light Snow,220,2011-11-18 16:58:00
11:11 AM,28.4,19.4,69,29.65,3.0,SW,3.5,-,0.00,Snow,Light Snow,220,2011-11-18 17:11:00
11:19 AM,28.4,19.4,69,29.65,4.0,Calm,Calm,-,0.00,Snow,Light Snow,0,2011-11-18 17:19:00
11:53 AM,28.0,21.9,78,29.68,3.0,South,3.5,-,0.00,Snow,Light Snow,170,2011-11-18 17:53:00
12:09 PM,28.4,23.0,80,29.63,1.8,South,3.5,-,0.00,Snow,Light Snow,170,2011-11-18 18:09:00
12:17 PM,28.4,23.0,80,29.63,1.2,SSE,3.5,-,0.01,Snow,Light Snow,160,2011-11-18 18:17:00
12:21 PM,28.4,23.0,80,29.63,2.0,South,3.5,-,0.01,Snow,Light Snow,190,2011-11-18 18:21:00
12:29 PM,28.4,23.0,80,29.64,4.0,South,3.5,-,0.01,Snow,Light Snow,180,2011-11-18 18:29:00
12:53 PM,28.9,24.1,82,29.68,10.0,South,5.8,-,0.01,,Overcast,180,2011-11-18 18:53:00
1:53 PM,30.9,24.1,76,29.69,10.0,SW,5.8,-,N/A,,Overcast,220,2011-11-18 19:53:00
2:53 PM,32.0,21.9,66,29.68,10.0,West,5.8,-,N/A,,Partly Cloudy,280,2011-11-18 20:53:00
3:53 PM,33.1,18.0,54,29.72,10.0,NW,10.4,-,N/A,,Overcast,310,2011-11-18 21:53:00
4:53 PM,30.9,19.9,64,29.75,10.0,NNW,10.4,-,N/A,,Mostly Cloudy,330,2011-11-18 22:53:00
5:53 PM,28.9,19.0,67,29.77,10.0,NW,8.1,-,N/A,,Clear,320,2011-11-18 23:53:00
6:53 PM,27.0,18.0,69,29.79,10.0,NW,11.5,-,N/A,,Clear,320,2011-11-19 00:53:00
7:53 PM,25.0,17.1,72,29.82,10.0,NW,8.1,-,N/A,,Partly Cloudy,320,2011-11-19 01:53:00
8:18 PM,24.8,17.6,74,29.78,10.0,NNW,8.1,-,N/A,,Mostly Cloudy,330,2011-11-19 02:18:00
8:53 PM,25.0,17.1,72,29.85,10.0,NNW,6.9,-,N/A,,Overcast,330,2011-11-19 02:53:00
9:21 PM,23.0,15.8,74,29.80,10.0,NW,5.8,-,N/A,,Scattered Clouds,320,2011-11-19 03:21:00
9:53 PM,24.1,17.1,75,29.87,10.0,NW,5.8,-,N/A,,Partly Cloudy,320,2011-11-19 03:53:00
10:53 PM,21.9,16.0,78,29.87,10.0,NNW,8.1,-,N/A,,Partly Cloudy,330,2011-11-19 04:53:00
11:05 PM,23.0,17.6,80,29.85,10.0,NW,4.6,-,N/A,,Mostly Cloudy,320,2011-11-19 05:05:00
11:53 PM,24.1,17.1,75,29.91,10.0,NNW,3.5,-,N/A,,Overcast,330,2011-11-19 05:53:00